SCP
1 1 1 1 0 0 0 0 0 0 0 0 0 0 0 0 0 0 0 0 0 0 0 0 0 0 0 0 0 0 0 0 0 0 0 0 0 0 0 0 0 0 0
1 1 1 1 1 0 0 0 0 0 0 0 0 0 0 0 0 0 0 0 0 0 0 0 0 0 0 0 0 0 0 0 0 0 0 0 0 0 0 0 0 0 0
1 1 1 1 1 0 0 0 0 0 0 0 0 0 0 0 0 0 0 0 0 0 0 0 0 0 0 0 0 0 0 0 0 0 0 0 0 0 0 0 0 0 0
1 1 1 1 1 0 0 0 0 0 0 0 0 0 0 0 0 0 0 0 0 0 0 0 0 0 0 0 0 0 0 0 0 0 0 0 0 0 0 0 0 0 0
1 1 1 1 1 0 0 0 0 0 0 0 0 0 0 0 0 0 0 0 0 0 0 0 0 0 0 0 0 0 0 0 0 0 0 0 0 0 0 0 0 0 0
1 1 1 1 1 0 0 0 0 0 0 0 0 0 0 0 0 0 0 0 0 0 0 0 0 0 0 0 0 0 0 0 0 0 0 0 0 0 0 0 0 0 0
1 1 1 1 1 1 1 0 0 0 0 0 0 0 0 0 0 0 0 0 0 0 0 0 0 0 0 0 0 0 0 0 0 0 0 0 0 0 0 0 0 0 0
0 0 0 0 0 0 0 0 0 0 0 0 0 0 0 0 0 0 0 0 0 0 0 0 0 0 0 0 0 0 0 0 0 0 0 0 0 0 0 0 0 0 0
0 0 0 0 0 0 0 0 0 0 0 0 0 0 0 0 0 0 0 0 0 0 0 0 0 0 0 0 0 0 0 0 0 0 0 0 0 0 0 0 0 0 0
0 0 0 0 0 0 0 0 0 0 0 0 0 0 0 0 0 0 0 0 0 0 0 0 0 0 0 0 0 0 0 0 0 0 0 0 0 0 0 0 0 0 0
0 0 0 0 0 0 0 0 0 0 0 0 0 0 0 0 0 0 0 0 0 0 0 0 0 0 0 0 0 0 0 0 0 0 0 0 0 0 0 0 0 0 0
0 0 0 0 0 0 0 0 0 0 0 0 0 0 0 0 0 0 0 0 0 0 0 0 0 0 0 0 0 0 0 0 0 0 0 0 0 0 0 0 0 0 0
0 0 0 0 0 0 0 0 0 0 0 0 0 0 0 0 0 0 0 0 0 0 0 0 0 0 0 0 0 0 0 0 0 0 0 0 0 0 0 0 0 0 0
0 0 0 0 0 0 0 0 0 0 0 0 0 0 0 0 0 0 0 0 0 0 0 0 0 0 0 0 0 0 0 0 0 0 0 0 0 0 0 0 0 0 0
0 0 0 0 0 0 0 0 0 0 0 0 0 0 0 0 0 0 0 0 0 0 0 0 0 0 0 0 0 0 0 0 0 0 0 0 0 0 0 0 0 0 0
0 0 0 0 0 0 0 0 0 0 0 0 0 0 0 0 0 0 0 0 0 0 0 0 0 0 0 0 0 0 0 0 0 0 0 0 0 0 0 0 0 0 0
0 0 0 0 0 0 0 0 0 0 0 0 0 0 0 0 0 0 0 0 0 0 0 0 0 0 0 0 0 0 0 0 0 0 0 0 0 0 0 0 0 0 0
0 0 0 0 0 0 0 0 0 0 0 0 0 0 0 0 0 0 0 0 0 0 0 0 0 0 0 0 0 0 0 0 0 0 0 0 0 0 0 0 0 0 0
0 0 0 0 0 0 0 0 0 0 0 0 0 0 0 0 0 0 0 0 0 0 0 0 0 0 0 0 0 0 0 0 0 0 0 0 0 0 0 0 0 0 0
0 0 0 0 0 0 0 0 0 0 0 0 0 0 0 0 0 0 0 0 0 0 0 0 0 0 0 0 0 0 0 0 0 0 0 0 0 0 0 0 0 0 0
0 0 0 0 0 0 0 0 0 0 0 0 0 0 0 0 0 0 0 0 0 0 0 0 0 0 0 0 0 0 0 0 0 0 0 0 0 0 0 0 0 0 0
0 0 0 0 0 0 0 0 0 0 0 0 0 0 0 0 0 0 0 0 0 0 0 0 0 0 0 0 0 0 0 0 0 0 0 0 0 0 0 0 0 0 0
0 0 0 0 0 0 0 0 0 0 0 0 0 0 0 0 0 0 0 0 0 0 0 0 0 0 0 0 0 0 0 0 0 0 0 0 0 0 0 0 0 0 0
0 0 0 0 0 0 0 0 0 0 0 0 0 0 0 0 0 0 0 0 0 0 0 0 0 0 0 0 0 0 0 0 0 0 0 0 0 0 0 0 0 0 0
0 0 0 0 0 0 0 0 0 0 0 0 0 0 0 0 0 0 0 0 0 0 0 0 0 0 0 0 0 0 0 0 0 0 0 0 0 0 0 0 0 0 0
0 0 0 0 0 0 0 0 0 0 0 0 0 0 0 0 0 0 0 0 0 0 0 0 0 0 0 0 0 0 0 0 0 0 0 0 0 0 0 0 0 0 0
Wind_Speed
5 3 3 4 4 4 3 4 5 4 5 5 5 4 4 4 4 4 4 4 4 4 4 5 7 7 5 5 5 4 5 4 5 3 2 3 6 6 6 5 5 5 5
4 3 3 2 2 3 4 4 4 4 5 5 5 5 5 5 4 4 4 4 4 4 4 5 6 5 7 6 5 5 4 4 4 3 3 3 4 5 6 5 4 6 5
4 4 2 2 3 4 5 4 4 5 5 5 5 6 6 5 5 5 4 4 4 4 4 5 5 5 5 5 6 6 4 3 2 3 3 2 1 2 3 3 4 3 5
4 3 2 3 4 5 5 5 4 5 6 6 6 6 6 6 6 5 4 4 4 4 4 3 4 5 5 6 6 6 6 4 3 2 2 2 2 2 3 3 3 4 4
4 4 5 5 5 5 6 5 5 5 6 6 5 5 5 6 7 7 6 5 5 4 3 3 4 6 8 6 5 5 5 4 3 3 2 2 2 3 4 4 5 3 3
1 3 4 4 4 4 6 6 6 5 5 4 4 4 5 6 10 12 9 6 5 5 5 4 4 6 9 11 10 10 8 5 4 3 2 2 2 3 3 4 4 3 4
7 5 4 2 1 2 2 2 3 3 3 4 4 5 5 7 10 12 13 6 6 6 5 4 4 6 9 6 9 12 11 12 10 5 4 4 4 4 4 6 6 7 7
7 8 8 7 6 5 4 4 4 2 1 2 3 3 3 5 8 9 11 6 5 5 5 6 5 6 6 7 7 7 8 9 10 8 6 7 7 6 7 8 8 8 3
6 6 6 6 6 6 6 5 4 3 3 2 2 1 1 3 5 8 8 4 4 4 4 4 5 6 10 11 7 7 6 6 10 12 12 12 13 14 10 5 5 5 5
5 5 5 5 5 5 5 4 4 3 3 3 4 3 2 2 3 4 6 3 3 3 3 3 4 5 8 9 8 7 7 6 6 7 8 9 7 5 6 6 5 5 3
4 4 4 4 4 4 4 4 4 4 5 5 5 4 4 4 4 3 3 2 3 3 3 3 3 6 7 7 9 7 8 5 4 4 4 3 2 1 0 1 3 4 4
4 4 3 4 4 4 5 5 5 5 5 5 5 5 4 5 5 5 4 2 3 3 3 3 4 5 5 5 5 6 8 7 4 3 3 2 1 0 0 0 1 1 1
4 3 2 3 4 4 5 5 5 5 4 4 4 4 5 5 6 10 8 5 3 2 3 6 7 6 4 3 5 7 7 5 4 3 2 2 1 1 1 1 1 1 1
3 1 1 1 2 3 3 3 3 4 4 4 5 5 5 4 4 4 4 4 3 2 2 3 0 5 4 5 5 4 3 3 3 3 2 2 1 1 1 1 1 0 1
2 1 1 1 1 2 2 3 3 2 3 3 3 4 5 5 6 8 4 2 2 2 2 0 1 3 3 3 3 3 2 3 2 2 2 2 1 1 2 2 2 1 2
3 1 1 2 2 2 1 1 2 1 3 4 4 5 4 5 8 7 4 1 2 4 1 2 2 2 3 3 3 2 2 2 2 2 2 2 2 2 3 2 2 3 3
4 3 1 1 2 2 1 1 1 1 1 2 3 5 4 5 6 5 4 3 5 6 2 2 2 2 2 3 2 2 2 2 2 2 2 2 2 2 2 2 2 2 2
4 3 2 1 1 1 1 1 1 1 1 1 2 4 5 5 5 5 4 3 3 4 3 4 4 3 3 3 2 2 2 2 2 1 1 1 1 1 1 1 1 2 2
4 3 2 1 1 0 1 1 2 2 1 1 2 4 7 6 7 8 5 3 3 3 3 4 4 3 3 3 3 3 3 3 3 2 2 2 1 1 1 2 2 4 3
4 6 4 1 0 1 1 1 2 2 3 3 3 3 4 4 4 5 5 4 4 4 4 4 4 4 4 4 4 4 4 4 3 2 1 1 1 1 2 3 3 3 3
4 4 4 2 2 2 2 1 1 2 2 2 2 3 3 3 4 4 4 5 4 4 4 4 4 5 5 4 4 4 3 2 2 1 1 1 1 2 2 3 3 3 3
4 4 3 3 2 2 2 2 2 3 2 2 2 3 6 4 4 4 4 4 4 5 5 5 5 5 5 5 4 4 3 4 4 4 3 3 2 2 2 3 3 3 3
4 4 3 2 2 3 3 3 3 3 2 2 2 3 3 3 3 4 4 4 4 5 5 6 6 5 4 4 4 3 3 3 4 5 5 4 3 2 2 3 3 3 3
5 5 4 3 2 3 3 3 3 3 2 2 2 2 2 2 3 4 3 3 4 4 5 5 5 5 6 4 3 3 3 4 4 4 5 4 2 2 2 2 3 3 3
5 4 4 4 3 3 3 3 3 3 3 2 2 2 2 2 2 3 3 3 4 5 6 5 4 4 5 6 6 5 7 7 5 3 3 3 3 3 3 3 3 3 3
5 4 3 3 3 4 4 4 3 3 3 2 2 2 3 3 2 3 3 4 4 4 5 4 5 6 7 5 7 9 9 9 9 9 5 4 5 5 4 4 5 4 5
Wind_Direction
176 163 142 138 150 161 170 174 174 179 177 180 190 208 222 209 187 173 174 183 213 232 223 210 216 207 203 192 183 184 191 189 207 224 193 188 175 177 174 174 182 193 197
168 140 147 157 164 188 203 198 188 196 200 196 189 194 206 209 205 198 196 194 212 232 232 222 222 211 200 188 182 177 176 182 181 188 191 181 187 184 167 174 181 191 196
156 152 168 201 211 222 229 222 203 201 210 209 195 195 201 208 216 221 214 217 230 240 236 224 217 198 189 178 176 172 166 161 154 160 182 179 177 163 154 175 188 200 206
160 159 195 232 236 239 240 241 234 216 212 216 212 209 204 204 213 224 219 227 243 255 248 220 199 186 177 167 172 171 162 151 144 136 146 171 184 153 150 172 201 214 220
169 180 207 230 245 246 242 236 241 235 229 226 222 223 211 199 206 209 209 214 224 239 243 216 190 184 181 175 167 167 163 157 152 145 157 169 175 160 194 189 205 206 234
159 212 222 227 243 252 249 237 231 235 236 230 227 222 211 211 211 205 200 199 203 209 217 222 218 214 213 210 199 185 176 169 169 159 153 195 208 212 202 193 193 185 243
47 32 11 346 342 323 290 269 260 256 249 237 222 209 213 221 222 214 208 194 196 205 206 208 223 227 224 219 222 214 202 195 189 176 186 212 219 218 214 207 202 206 219
49 45 42 46 45 37 40 32 6 350 300 250 242 224 224 242 236 218 204 194 204 216 215 210 219 240 224 210 208 212 211 208 205 205 210 224 231 230 227 224 219 224 238
50 47 44 49 47 39 35 25 13 20 21 357 318 319 259 281 251 215 187 175 203 227 232 223 220 236 246 219 198 206 211 217 215 220 229 241 248 250 242 222 201 197 226
35 44 50 54 53 41 28 18 8 13 17 28 39 40 42 351 306 225 197 177 212 243 264 267 261 251 247 220 194 196 208 215 201 210 227 237 239 249 232 210 202 201 212
30 48 50 47 48 36 27 23 22 25 31 33 35 25 19 6 355 328 225 191 219 242 256 267 280 285 258 224 190 192 203 183 166 162 155 153 157 189 259 221 209 206 214
52 59 49 37 34 36 39 32 30 34 37 26 22 13 3 360 8 2 354 258 217 222 243 248 261 268 241 200 182 187 170 142 124 124 127 138 148 171 72 97 139 153 184
70 65 37 39 42 44 50 44 35 29 30 20 20 14 358 357 5 8 359 336 270 236 259 267 265 247 194 169 161 149 138 131 134 135 139 147 158 153 126 96 52 38 343
91 105 6 22 26 32 40 43 46 29 21 20 18 6 350 346 353 352 342 339 338 312 298 312 91 137 128 122 119 113 118 145 144 141 140 138 119 122 152 167 176 258 305
126 186 269 302 313 342 33 45 41 37 16 11 1 348 344 342 335 329 310 294 289 283 274 187 139 145 145 133 115 117 126 127 123 117 121 141 175 206 224 213 201 204 231
167 213 264 285 299 305 308 31 53 30 358 358 351 351 339 336 343 3 14 357 339 334 269 161 157 153 144 142 140 133 130 138 143 142 153 177 203 216 227 223 216 219 237
175 203 241 291 313 328 330 280 295 328 299 337 2 3 2 355 9 16 16 1 345 349 51 99 108 110 116 132 139 141 155 166 154 153 178 207 222 227 222 228 230 244 265
168 187 193 238 299 359 23 56 81 65 25 341 316 319 336 353 9 10 5 7 356 3 33 62 74 85 98 110 115 105 89 89 92 86 69 24 356 333 313 298 288 274 277
164 179 194 234 313 59 107 82 58 47 40 12 351 340 350 17 40 38 38 41 40 40 53 67 73 78 81 85 85 78 74 68 62 59 38 4 335 313 286 276 271 268 259
170 178 166 162 71 103 125 80 66 67 58 42 20 349 347 30 44 33 34 39 48 48 51 61 61 62 59 56 56 62 65 66 67 69 50 339 302 267 263 260 248 245 243
170 171 158 124 121 125 138 145 121 103 77 41 9 7 55 70 63 52 45 41 43 45 47 55 59 55 49 49 56 64 71 69 63 40 340 306 309 301 288 275 268 262 262
163 158 153 148 134 119 126 138 140 126 102 52 27 46 73 76 75 71 62 53 45 40 39 49 56 53 44 38 36 38 34 22 5 347 329 314 308 302 297 292 288 284 281
157 159 155 149 144 129 119 121 131 134 126 95 75 72 72 81 83 83 77 66 58 53 50 53 56 50 44 36 31 28 13 345 324 315 313 308 307 309 314 317 316 315 311
148 152 155 154 145 130 126 124 128 138 143 130 113 105 107 110 103 97 88 78 74 70 67 65 62 50 36 22 6 351 338 320 305 298 306 313 322 335 345 355 357 356 349
139 145 151 156 154 146 141 140 136 136 140 140 132 121 112 110 107 100 82 71 76 79 75 62 45 31 21 13 3 352 346 350 353 339 323 344 10 15 17 17 10 360 349
142 143 146 151 155 157 153 152 151 148 149 144 133 123 114 110 108 99 84 73 72 73 71 56 38 30 18 7 3 7 18 32 38 39 38 42 46 41 37 35 26 16 1